Dyersburg, TN

11:59 AM CDT on September 27, 2016 (GMT -0500)
Dyersburg Municipal

Weather History for KDYR - July, 2013

Change the Weather History Date:

Friday, July 12, 2013

  Actual Average Record
Temperature  
Mean Temperature 75 °F -  
Max Temperature 86 °F 86 °F 100 °F (2011)
Min Temperature 64 °F 69 °F 64 °F (1999)
Cooling Degree Days 10    
Growing Degree Days 25 (Base 50)    
Moisture  
Dew Point 55 °F    
Average Humidity 51    
Maximum Humidity 64    
Minimum Humidity 35    
Precipitation  
Precipitation 0.00 in - - ()
Sea Level Pressure  
Sea Level Pressure 30.02 in    
Wind  
Wind Speed 8 mph (NE)    
Max Wind Speed 14 mph    
Max Gust Speed 21 mph    
Visibility 10 miles    
Events      
Averages and records for this station are not official NWS values.
T = Trace of Precipitation, MM = Missing Value Source: NWS Daily Summary

Daily Weather History Graph

Daily Weather History Graph

Search for Another Location

Airport or City:

Trip Planner

Search our weather history database for the weather conditions in past years. The results will help you decide how hot, cold, wet, or windy it might be!

Date:

Astronomy

Jul. 12, 2013 Rise Set
Actual Time 5:50 AM CDT 8:15 PM CDT
Civil Twilight 5:21 AM CDT 8:45 PM CDT
Nautical Twilight 4:44 AM CDT 9:21 PM CDT
Astronomical Twilight 4:04 AM CDT 10:01 PM CDT
Moon 9:57 AM CDT (7/12) 10:36 PM CDT (7/12)
Length of Visible Light 15h 24m
Length of Day
14h 24m
Waxing Crescent, 17% of the Moon is Illuminated
Jul 12
Waxing Crescent
Jul 15
First Quarter
Jul 22
Full
Jul 29
Last Quarter
Aug 6
New

Hourly Weather History & Observations

Time (CDT) Temp. Heat Index Dew Point Humidity Pressure Visibility Wind Dir Wind Speed Gust Speed Precip Events Conditions
12:15 AM 69.8 °F - 53.6 °F 56% 30.01 in 10.0 mi NNE 6.9 mph - N/A   Clear
12:35 AM 69.8 °F - 53.6 °F 56% 30.01 in 10.0 mi NE 6.9 mph - N/A   Clear
1:15 AM 69.8 °F - 53.6 °F 56% 30.01 in 10.0 mi NNE 6.9 mph - N/A   Clear
1:35 AM 68.0 °F - 53.6 °F 60% 30.01 in 10.0 mi NNE 8.1 mph - N/A   Clear
1:55 AM 68.0 °F - 53.6 °F 60% 30.01 in 10.0 mi NNE 8.1 mph - N/A   Clear
2:15 AM 68.0 °F - 53.6 °F 60% 30.01 in 10.0 mi NNE 8.1 mph - N/A   Clear
2:35 AM 68.0 °F - 53.6 °F 60% 30.01 in 10.0 mi NNE 8.1 mph - N/A   Clear
2:55 AM 66.2 °F - 53.6 °F 64% 30.00 in 10.0 mi NNE 6.9 mph - N/A   Clear
3:15 AM 66.2 °F - 51.8 °F 60% 30.00 in 10.0 mi NNE 4.6 mph - N/A   Clear
3:35 AM 66.2 °F - 51.8 °F 60% 30.00 in 10.0 mi NNE 4.6 mph - N/A   Clear
3:55 AM 66.2 °F - 51.8 °F 60% 30.01 in 10.0 mi NNE 6.9 mph - N/A   Clear
4:15 AM 66.2 °F - 51.8 °F 60% 30.01 in 10.0 mi NNE 6.9 mph - N/A   Clear
4:35 AM 66.2 °F - 51.8 °F 60% 30.01 in 10.0 mi NNE 6.9 mph - N/A   Clear
5:15 AM 66.2 °F - 51.8 °F 60% 30.02 in 10.0 mi NNE 8.1 mph - N/A   Clear
5:35 AM 66.2 °F - 51.8 °F 60% 30.03 in 10.0 mi NNE 8.1 mph - N/A   Clear
5:55 AM 64.4 °F - 51.8 °F 64% 30.03 in 10.0 mi NE 5.8 mph - N/A   Clear
6:15 AM 64.4 °F - 51.8 °F 64% 30.03 in 10.0 mi NE 6.9 mph - N/A   Clear
6:35 AM 66.2 °F - 51.8 °F 60% 30.03 in 10.0 mi NE 6.9 mph - N/A   Clear
6:55 AM 66.2 °F - 53.6 °F 64% 30.04 in 10.0 mi NE 4.6 mph - N/A   Clear
7:15 AM 68.0 °F - 53.6 °F 60% 30.05 in 10.0 mi NE 5.8 mph - N/A   Clear
7:35 AM 69.8 °F - 53.6 °F 56% 30.05 in 10.0 mi NE 6.9 mph - N/A   Clear
7:55 AM 69.8 °F - 55.4 °F 60% 30.06 in 10.0 mi ENE 5.8 mph - N/A   Clear
8:15 AM 71.6 °F - 55.4 °F 57% 30.06 in 10.0 mi NE 5.8 mph - N/A   Clear
8:35 AM 71.6 °F - 55.4 °F 57% 30.06 in 10.0 mi NE 6.9 mph - N/A   Clear
8:55 AM 73.4 °F - 57.2 °F 57% 30.07 in 10.0 mi NE 5.8 mph - N/A   Clear
9:15 AM 73.4 °F - 57.2 °F 57% 30.07 in 10.0 mi ENE 6.9 mph - N/A   Clear
9:35 AM 75.2 °F - 57.2 °F 53% 30.06 in 10.0 mi NE 9.2 mph - N/A   Clear
9:55 AM 75.2 °F - 59.0 °F 57% 30.06 in 10.0 mi NE 8.1 mph - N/A   Clear
10:15 AM 78.8 °F - 59.0 °F 51% 30.06 in 10.0 mi NE 8.1 mph - N/A   Clear
10:35 AM 78.8 °F - 59.0 °F 51% 30.05 in 10.0 mi ENE 8.1 mph - N/A   Clear
10:55 AM 80.6 °F 80.8 °F 57.2 °F 45% 30.05 in 10.0 mi NNE 13.8 mph 18.4 mph N/A   Partly Cloudy
11:15 AM 80.6 °F 81.1 °F 59.0 °F 48% 30.05 in 10.0 mi ENE 11.5 mph 19.6 mph N/A   Partly Cloudy
11:35 AM 80.6 °F 81.1 °F 59.0 °F 48% 30.04 in 10.0 mi NNE 9.2 mph - N/A   Scattered Clouds
11:55 AM 82.4 °F 82.5 °F 59.0 °F 45% 30.04 in 10.0 mi NE 9.2 mph - N/A   Partly Cloudy
12:15 PM 82.4 °F 82.5 °F 59.0 °F 45% 30.03 in 10.0 mi East 9.2 mph - N/A   Scattered Clouds
12:35 PM 82.4 °F 82.5 °F 59.0 °F 45% 30.03 in 10.0 mi NNE 9.2 mph 16.1 mph N/A   Scattered Clouds
12:55 PM 82.4 °F 82.5 °F 59.0 °F 45% 30.03 in 10.0 mi NNE 10.4 mph - N/A   Mostly Cloudy
1:16 PM 84.2 °F 83.8 °F 59.0 °F 42% 30.03 in 10.0 mi NNE 10.4 mph 18.4 mph N/A   Mostly Cloudy
1:35 PM 82.4 °F 82.0 °F 57.2 °F 42% 30.03 in 10.0 mi NNE 12.7 mph 16.1 mph N/A   Scattered Clouds
1:55 PM 84.2 °F 83.5 °F 57.2 °F 40% 30.03 in 10.0 mi NE 9.2 mph 19.6 mph N/A   Partly Cloudy
2:15 PM 84.2 °F 83.8 °F 59.0 °F 42% 30.02 in 10.0 mi NE 13.8 mph - N/A   Partly Cloudy
2:35 PM 84.2 °F 83.5 °F 57.2 °F 40% 30.01 in 10.0 mi NNE 9.2 mph - N/A   Clear
2:55 PM 84.2 °F 83.5 °F 57.2 °F 40% 30.01 in 10.0 mi NE 12.7 mph 17.3 mph N/A   Clear
3:16 PM 86.0 °F 85.4 °F 59.0 °F 40% 30.01 in 10.0 mi NNE 13.8 mph 18.4 mph N/A   Clear
3:35 PM 84.2 °F 83.5 °F 57.2 °F 40% 30.00 in 10.0 mi NNE 11.5 mph 17.3 mph N/A   Clear
3:55 PM 86.0 °F 84.9 °F 57.2 °F 37% 30.00 in 10.0 mi NE 10.4 mph 17.3 mph N/A   Clear
4:15 PM 84.2 °F 83.5 °F 57.2 °F 40% 30.00 in 10.0 mi NE 10.4 mph 16.1 mph N/A   Clear
4:35 PM 84.2 °F 83.0 °F 55.4 °F 37% 30.00 in 10.0 mi ENE 10.4 mph - N/A   Clear
4:55 PM 84.2 °F 83.0 °F 55.4 °F 37% 30.00 in 10.0 mi NE 12.7 mph - N/A   Clear
5:15 PM 84.2 °F 83.0 °F 55.4 °F 37% 30.00 in 10.0 mi NNE 11.5 mph 17.3 mph N/A   Clear
5:35 PM 84.2 °F 82.8 °F 53.6 °F 35% 30.00 in 10.0 mi NE 9.2 mph 18.4 mph N/A   Clear
5:55 PM 84.2 °F 83.0 °F 55.4 °F 37% 30.00 in 10.0 mi NNE 13.8 mph 20.7 mph N/A   Clear
6:15 PM 82.4 °F 81.4 °F 53.6 °F 37% 29.99 in 10.0 mi ENE 12.7 mph - N/A   Clear
6:36 PM 82.4 °F 81.4 °F 53.6 °F 37% 30.00 in 10.0 mi NE 11.5 mph - N/A   Clear
6:55 PM 82.4 °F 81.4 °F 53.6 °F 37% 30.00 in 10.0 mi NNE 10.4 mph 17.3 mph N/A   Clear
7:15 PM 80.6 °F 80.3 °F 53.6 °F 39% 30.00 in 10.0 mi NE 10.4 mph - N/A   Clear
7:35 PM 80.6 °F 80.5 °F 55.4 °F 42% 30.00 in 10.0 mi NE 6.9 mph - N/A   Clear
7:55 PM 78.8 °F - 53.6 °F 42% 30.00 in 10.0 mi NE 8.1 mph - N/A   Clear
8:15 PM 77.0 °F - 53.6 °F 44% 30.00 in 10.0 mi NE 6.9 mph - N/A   Clear
8:35 PM 75.2 °F - 53.6 °F 47% 30.00 in 10.0 mi ENE 3.5 mph - N/A   Clear
9:15 PM 71.6 °F - 53.6 °F 53% 30.02 in 10.0 mi Calm Calm - N/A   Clear
9:35 PM 71.6 °F - 53.6 °F 53% 30.03 in 10.0 mi Calm Calm - N/A   Clear
9:55 PM 71.6 °F - 53.6 °F 53% 30.03 in 10.0 mi Calm Calm - N/A   Clear
10:15 PM 69.8 °F - 53.6 °F 56% 30.03 in 10.0 mi Calm Calm - N/A   Clear
10:35 PM 69.8 °F - 53.6 °F 56% 30.03 in 10.0 mi Calm Calm - N/A   Clear
10:55 PM 69.8 °F - 53.6 °F 56% 30.04 in 10.0 mi NE 3.5 mph - N/A   Clear
11:16 PM 68.0 °F - 53.6 °F 60% 30.04 in 10.0 mi Calm Calm - N/A   Clear
11:35 PM 68.0 °F - 53.6 °F 60% 30.04 in 10.0 mi NNE 3.5 mph - N/A   Clear
11:55 PM 68.0 °F - 53.6 °F 60% 30.04 in 10.0 mi Calm Calm - N/A   Clear